Regional Weather Roundup
Issued by NWS

Home | Current Version | Previous Version | Text Only | Print | Product List | Glossary Off
Versions: 1 2 3 4 5 6 7 8 9 10 11 12 13 14 15 16 17 18 19 20 21 22 23 24 25 26 27

000
ASUS45 KSLC 231310
RWRUT

UTAH REGIONAL WEATHER ROUNDUP
NATIONAL WEATHER SERVICE SALT LAKE CITY UT
700 AM MDT THU OCT 23 2014

UTZ001>011-023>025-231400-

NORTHERN UTAH

CITY           SKY/WX    TMP DP  RH WIND       PRES   REMARKS
BRIGHAM CITY   CLOUDY    39  30  70 N6        30.14R WCI  35
HILL AFB       CLOUDY    45  26  47 SE16G24   30.13F
LOGAN          CLEAR     33  30  88 CALM      30.14S
OGDEN          CLOUDY    47  27  45 S10       30.12F
PROVO AIRPORT  CLEAR     39  28  65 SE8       30.17S WCI  34
SALT LAKE CITY MOCLDY    46  34  62 SE8       30.11F
VERNAL         CLEAR     37  31  78 W3        30.24R
WENDOVER       MOCLDY    43  30  61 CALM      30.13S
HEBER CITY     CLEAR     27  23  86 CALM      30.23S
WEST JORDAN    CLEAR     52  36  54 S18       30.13F

$$

UTZ012>022-026-027-231400-

SOUTHERN/CENTRAL UTAH

CITY           SKY/WX    TMP DP  RH WIND       PRES   REMARKS
BLANDING       CLEAR     43  33  68 N3        30.32R
BRYCE CANYON   PTCLDY    28  22  78 W8        30.32S WCI  20
CEDAR CITY     PTCLDY    39  29  67 E5        30.20S
DELTA          MOCLDY    42  30  61 NE3       30.17R
HANKSVILLE       N/A     37  30  75 CALM      30.22R
MILFORD        PTCLDY    37  28  70 S9        30.18R WCI  30
MOAB/CYNLANDS  CLEAR     48  36  63 VRB3      30.18R
PRICE          PTCLDY    41  29  62 N8        30.23R
ST GEORGE      SUNNY     52  30  43 W3        30.16R
KANAB            N/A     39  28  65 NE6       30.26R WCI  35

$$

REGIONAL REPORTS     COLORADO/ARIZONA

CITY           SKY/WX    TMP DP  RH WIND       PRES   REMARKS
CRAIG, CO      CLEAR     26  23  88 CALM      30.28F
GRAND JUNCTION CLEAR     43  38  82 E12       30.22S
RIFLE          CLEAR     35  32  88 SE3       30.29R
MONTROSE       CLEAR     38  33  82 SE7       30.28F WCI  33
CORTEZ         CLEAR     34  31  88 E5        30.27F WCI  30
PAGE, AZ       CLEAR     53  31  42 CALM      30.18R
GRAND CANYON   PTCLDY    29  24  82 CALM      30.30R HAZE
KINGMAN        PTCLDY    49  40  71 SE3       30.11S
FLAGSTAFF      PTCLDY    33  29  85 CALM      30.31S

$$

REGIONAL REPORTS    NEVADA/IDAHO/WYOMING

CITY           SKY/WX    TMP DP  RH WIND       PRES   REMARKS
LAS VEGAS, NV  CLOUDY    64  32  30 SW7       30.01S
ELY            PTCLDY    51  20  29 S15       30.20R
ELKO           MOCLDY    40  21  46 NE5       30.12R
POCATELLO, ID  CLEAR     38  29  70 N7        30.09R WCI  33
BURLEY         MOCLDY    40  30  67 CALM      30.05R
EVANSTON, WY   PTCLDY    38  22  52 S7        30.22S WCI  33
ROCK SPRINGS   PTCLDY    36  21  54 CALM      30.23R

$$



USA.gov is the U.S. government's official web portal to all federal, state and local government web resources and services.